Wind_Speed
8 8 8 8 8 9 9 9 10 10 11 11 11 11 12 12 12 12 12 12 12 11 10 10 10 10 10 10 11 12 13 13 13 13 13 13 12 13 13 13 13 13 12
8 8 8 8 8 9 10 10 10 10 11 11 11 12 12 12 13 13 13 12 11 11 10 10 10 10 10 9 9 11 12 13 14 13 13 13 13 13 13 13 13 13 12
8 8 8 8 9 9 10 10 11 11 12 12 11 11 12 12 13 13 13 12 12 11 11 11 11 11 11 11 11 12 12 12 12 13 13 13 13 13 13 13 13 14 14
8 8 8 8 9 9 10 10 11 10 11 11 12 12 12 12 12 12 13 13 13 12 12 12 12 12 12 11 12 12 12 12 12 12 13 14 14 14 14 14 14 14 14
8 9 9 9 9 9 9 9 10 10 10 11 11 11 12 12 12 12 12 13 13 13 13 12 12 12 12 12 12 12 12 13 13 13 14 14 15 15 15 15 15 15 15
9 9 9 9 9 8 9 9 10 10 11 12 11 11 12 12 12 12 12 13 13 13 13 13 13 13 13 13 13 13 13 14 14 15 15 16 16 16 16 16 15 16 16
9 9 9 9 9 9 10 10 10 11 12 12 11 12 13 13 13 13 13 13 13 13 13 13 13 13 13 13 14 14 14 15 15 16 16 16 17 17 17 16 16 16 16
9 9 9 9 10 10 11 11 11 11 12 12 12 12 12 12 13 13 13 14 14 14 14 14 14 14 15 15 16 16 15 15 16 16 16 16 16 16 16 16 17 17 17
9 9 10 11 11 11 11 11 11 11 11 12 12 12 12 12 13 14 14 14 14 14 14 15 15 15 16 16 16 17 16 16 16 16 15 15 15 16 16 17 17 17 17
10 11 11 12 12 12 12 11 11 11 12 12 12 12 12 13 13 13 14 14 14 14 14 15 15 15 15 16 16 17 17 17 16 16 16 16 16 16 16 17 17 17 17
11 11 12 12 12 12 12 11 11 12 12 12 12 13 13 13 14 14 14 15 15 15 15 15 15 15 15 15 15 16 16 17 17 17 16 16 16 16 16 17 17 17 18
12 12 12 12 12 12 11 12 12 12 13 13 13 13 14 14 15 15 15 15 16 16 16 15 15 15 15 15 15 15 16 16 17 17 17 17 17 17 17 18 18 19 19
13 13 13 12 12 12 12 13 13 13 13 14 14 15 15 15 15 15 15 16 16 16 16 16 15 15 15 15 16 16 16 16 16 17 17 18 18 18 19 19 20 20 20
14 14 14 13 14 14 14 14 14 14 14 14 15 16 16 16 16 15 16 16 17 17 17 16 16 15 15 16 16 16 15 15 16 16 17 18 18 19 20 20 21 21 21
14 15 15 15 15 15 15 15 15 15 15 16 16 16 16 16 16 16 17 17 17 17 17 17 17 17 16 17 17 17 16 16 17 17 17 18 19 19 20 20 21 22 22
16 16 17 17 17 16 16 16 16 16 17 17 16 16 16 17 17 17 18 18 18 17 17 17 18 18 18 18 18 17 17 17 18 18 18 18 19 19 19 20 20 21 21
17 17 18 18 18 18 17 17 17 17 17 17 17 17 17 17 18 18 18 18 19 18 18 18 18 18 18 19 18 18 18 18 19 19 19 19 19 19 19 19 19 19 20
18 18 18 18 18 18 19 19 19 18 17 17 17 17 17 18 18 19 19 20 20 20 20 19 19 19 19 19 19 19 19 19 20 20 20 20 20 20 20 20 20 20 20
19 19 20 20 19 19 20 20 20 19 18 17 17 18 19 19 19 19 20 21 21 21 21 21 21 20 20 20 20 20 20 20 21 22 22 21 21 21 21 21 21 21 21
20 20 21 21 21 21 21 20 20 19 18 18 18 19 20 20 20 21 21 21 22 22 22 22 21 21 21 21 21 21 21 22 22 22 23 23 23 23 23 23 23 23 23
22 22 22 22 22 22 21 20 20 19 19 20 20 20 20 21 21 21 21 22 22 23 23 23 23 22 22 22 23 22 22 23 23 23 23 23 23 23 24 24 24 24 25
23 23 23 23 23 22 21 21 21 21 21 21 22 21 21 21 22 23 23 24 24 24 24 24 24 24 24 24 24 24 24 24 24 24 24 24 24 24 24 24 24 25 26
24 24 24 24 24 23 23 22 22 22 22 22 23 23 23 23 23 24 25 25 25 26 26 26 25 26 26 26 26 26 25 25 25 25 25 25 25 26 26 25 25 25 26
26 26 25 25 25 24 24 24 24 25 24 24 24 24 25 26 26 26 26 26 27 26 26 27 27 27 27 27 27 26 26 26 25 25 25 25 25 25 25 26 26 27 27
27 27 27 27 26 26 26 26 27 27 26 26 26 26 27 27 28 27 27 27 27 27 28 28 28 28 27 27 27 27 26 26 26 26 27 27 26 26 26 27 27 27 28
28 28 28 28 27 27 27 28 28 28 28 28 28 28 28 29 29 29 29 28 28 28 28 28 28 27 28 28 28 28 28 28 28 27 28 28 27 27 27 28 28 29 28
Wind_Direction
285 283 283 281 272 270 273 272 270 272 272 275 275 274 275 277 276 277 277 277 278 281 286 289 288 287 283 274 262 258 258 264 269 267 266 264 263 262 262 262 262 263 265
284 281 278 281 281 274 276 274 271 274 272 273 276 277 278 279 277 277 277 277 276 277 280 283 285 286 281 277 263 263 265 266 268 268 266 268 267 266 265 263 263 263 265
283 281 284 285 286 286 283 281 280 279 277 275 277 279 281 281 280 280 278 275 275 277 276 278 281 282 284 280 276 273 271 275 272 269 268 267 266 265 267 265 265 266 267
291 288 289 287 287 289 288 286 283 285 281 277 278 280 282 282 283 281 280 279 278 278 276 277 280 280 283 281 278 277 273 273 272 270 268 269 271 269 268 270 271 272 271
294 293 293 292 292 292 290 289 290 289 288 281 280 281 282 286 285 287 287 285 282 280 279 279 282 282 279 279 279 278 274 272 272 271 270 270 269 270 270 273 274 275 276
298 297 295 292 294 298 298 294 292 289 290 287 282 284 286 289 289 289 289 289 287 283 283 283 285 285 284 283 281 280 280 280 278 277 276 275 273 274 274 274 273 274 274
298 297 297 298 301 303 303 298 295 296 295 290 290 292 291 290 288 288 288 290 289 286 285 284 285 284 284 283 282 281 280 279 279 279 278 277 274 274 274 273 272 272 272
301 299 301 302 302 302 303 304 303 302 301 298 298 295 292 289 289 288 289 289 288 285 285 286 286 285 283 282 282 281 280 280 280 280 279 277 275 274 274 273 272 273 272
302 302 303 301 299 298 300 303 304 303 302 302 299 296 293 290 290 287 288 289 288 287 285 285 286 286 286 285 284 283 282 282 281 280 281 280 277 277 277 275 273 273 273
301 301 299 299 299 297 299 301 301 303 303 302 299 296 294 294 293 291 289 289 289 288 286 286 286 286 286 286 285 283 281 279 277 278 278 278 279 278 278 278 274 274 274
298 299 300 299 298 297 298 301 302 302 302 301 298 297 296 296 295 293 293 292 291 290 289 288 287 287 288 287 286 285 282 279 277 276 277 278 278 279 277 277 276 277 277
298 300 302 302 300 298 298 299 299 300 300 298 298 295 294 294 294 294 293 294 293 293 292 290 289 289 289 288 287 287 285 282 280 278 278 278 278 278 278 277 277 277 277
297 297 299 300 299 298 298 299 298 300 298 297 298 297 295 294 295 295 295 294 294 294 294 292 291 290 289 289 289 289 287 283 281 280 279 278 277 278 278 278 278 277 277
296 296 296 296 297 296 295 295 297 298 297 298 299 298 296 294 294 294 294 295 296 294 293 292 293 291 290 290 290 290 288 285 283 283 283 282 280 280 280 279 279 279 277
293 294 296 296 295 294 293 293 295 296 297 296 298 297 296 293 291 292 293 295 294 294 293 292 292 291 290 291 291 290 287 286 285 286 286 285 283 282 281 280 279 279 277
292 292 293 294 294 293 292 292 294 295 296 296 296 295 294 293 292 292 294 295 294 293 292 293 294 291 289 289 290 288 287 286 286 286 286 286 285 284 282 282 282 281 279
290 291 292 293 294 293 292 291 292 293 295 294 293 293 293 291 288 290 291 293 293 293 293 294 293 292 290 289 289 288 286 286 286 286 285 284 286 286 285 285 284 283 281
289 290 292 292 292 292 291 291 290 290 291 291 291 291 292 292 290 289 289 290 292 291 291 291 292 291 290 290 289 289 288 288 287 286 285 283 284 284 286 287 287 286 284
288 290 291 291 291 291 290 289 289 287 286 287 289 289 291 291 291 290 289 290 290 290 290 290 290 289 288 288 287 288 289 288 287 287 285 283 283 283 284 286 286 285 285
287 288 289 290 291 291 288 287 287 285 284 285 287 288 289 291 291 291 292 292 291 291 291 291 291 290 289 288 288 288 287 287 286 286 285 284 283 283 283 283 283 282 282
286 286 287 288 290 290 289 287 285 284 284 285 286 288 288 290 292 292 292 293 293 291 290 291 291 290 290 289 289 288 287 287 287 286 286 285 285 284 283 282 282 281 279
285 285 285 285 287 288 288 287 285 284 285 286 286 287 289 291 291 292 292 293 293 291 289 289 289 289 290 288 288 288 287 286 286 286 285 284 284 284 284 284 283 282 281
285 285 284 284 284 285 284 285 285 285 287 287 286 286 288 290 290 290 292 294 294 292 290 289 289 288 288 288 287 287 287 286 286 286 286 285 285 284 283 283 282 283 283
284 285 284 283 283 282 282 283 284 286 286 286 286 285 287 288 288 288 290 291 292 292 291 289 289 289 289 288 287 286 286 285 284 285 285 285 285 285 284 284 284 284 283
283 284 283 282 281 281 281 282 283 284 285 285 284 283 285 287 287 288 289 290 290 291 290 288 287 287 287 287 287 285 284 283 283 285 285 285 286 285 285 286 286 286 286
282 283 283 282 280 279 281 282 283 284 284 284 284 283 284 285 286 287 287 288 290 291 290 288 288 287 287 287 286 285 284 283 282 283 284 285 286 286 286 287 287 287 287
Height
5861 5860 5860 5861 5861 5861 5861 5862 5861 5862 5862 5862 5862 5862 5862 5862 5862 5862 5862 5862 5862 5862 5861 5861 5860 5860 5859 5857 5858 5859 5860 5861 5862 5862 5863 5863 5863 5864 5865 5865 5865 5866 5866
5859 5859 5859 5859 5859 5859 5859 5859 5859 5859 5859 5859 5859 5859 5859 5859 5859 5860 5859 5859 5859 5859 5859 5859 5858 5858 5857 5856 5857 5857 5858 5859 5859 5859 5860 5860 5861 5861 5861 5862 5862 5863 5863
5857 5857 5857 5857 5857 5857 5857 5857 5857 5857 5857 5857 5857 5857 5857 5857 5856 5857 5857 5857 5857 5857 5856 5856 5856 5856 5855 5855 5855 5855 5856 5856 5856 5856 5857 5857 5857 5858 5858 5859 5859 5860 5860
5856 5856 5856 5856 5855 5855 5855 5855 5855 5855 5855 5854 5854 5854 5854 5854 5854 5854 5854 5854 5854 5854 5854 5854 5853 5853 5853 5853 5853 5853 5853 5853 5853 5853 5853 5854 5854 5854 5855 5855 5856 5856 5857
5855 5854 5854 5854 5854 5854 5853 5853 5853 5853 5852 5852 5852 5852 5851 5851 5851 5851 5851 5851 5851 5851 5851 5851 5851 5850 5850 5850 5850 5850 5850 5850 5850 5850 5850 5850 5851 5851 5852 5852 5852 5853 5853
5853 5853 5852 5852 5852 5852 5851 5851 5851 5850 5850 5849 5849 5849 5849 5848 5848 5848 5848 5848 5848 5848 5848 5847 5847 5847 5847 5847 5847 5847 5846 5846 5846 5846 5846 5847 5847 5847 5848 5848 5849 5849 5849
5851 5851 5851 5850 5850 5850 5849 5849 5848 5848 5847 5847 5846 5846 5846 5846 5846 5845 5845 5845 5845 5844 5844 5844 5844 5844 5844 5844 5843 5843 5843 5843 5843 5843 5843 5843 5843 5843 5844 5844 5844 5845 5845
5850 5849 5849 5849 5848 5848 5847 5847 5846 5846 5845 5844 5844 5844 5844 5844 5843 5842 5842 5842 5841 5841 5841 5841 5841 5840 5840 5840 5840 5840 5839 5839 5839 5839 5839 5839 5839 5839 5839 5840 5840 5840 5841
5848 5848 5847 5847 5846 5846 5845 5845 5844 5843 5843 5842 5841 5841 5841 5841 5840 5839 5839 5838 5838 5838 5838 5837 5837 5836 5836 5836 5835 5835 5835 5835 5835 5835 5835 5835 5835 5835 5835 5835 5835 5835 5836
5846 5846 5845 5845 5844 5844 5843 5842 5841 5841 5840 5839 5839 5838 5838 5837 5837 5836 5836 5835 5835 5835 5834 5834 5833 5832 5832 5832 5831 5831 5831 5831 5831 5831 5830 5830 5830 5830 5830 5830 5830 5831 5831
5844 5844 5843 5842 5842 5841 5840 5840 5839 5838 5838 5837 5836 5835 5835 5834 5834 5833 5833 5832 5831 5831 5830 5830 5829 5828 5828 5827 5827 5826 5826 5826 5826 5826 5826 5826 5826 5825 5825 5825 5826 5826 5826
5842 5841 5840 5840 5839 5838 5838 5837 5836 5835 5835 5834 5833 5832 5832 5831 5830 5829 5829 5828 5828 5827 5826 5825 5825 5824 5824 5823 5823 5822 5822 5821 5821 5821 5821 5821 5821 5821 5820 5820 5820 5820 5820
5839 5839 5838 5837 5836 5836 5835 5834 5833 5832 5831 5831 5830 5829 5828 5827 5826 5826 5825 5824 5824 5823 5822 5821 5821 5820 5819 5819 5818 5818 5817 5817 5816 5816 5816 5816 5816 5815 5815 5815 5814 5814 5814
5836 5835 5835 5834 5833 5832 5832 5831 5830 5829 5828 5827 5826 5825 5824 5823 5823 5822 5821 5821 5820 5819 5818 5817 5816 5816 5815 5815 5814 5813 5813 5812 5812 5811 5811 5810 5810 5810 5809 5809 5808 5807 5807
5833 5832 5831 5831 5830 5829 5828 5827 5826 5825 5824 5823 5822 5821 5820 5819 5819 5818 5817 5816 5816 5815 5814 5813 5812 5811 5811 5810 5809 5808 5808 5807 5807 5806 5806 5805 5804 5804 5803 5802 5801 5800 5799
5829 5828 5827 5827 5826 5825 5824 5823 5822 5821 5820 5819 5818 5817 5816 5815 5814 5814 5813 5812 5811 5810 5809 5808 5807 5806 5806 5805 5804 5804 5803 5802 5802 5801 5800 5799 5799 5798 5797 5796 5794 5792 5792
5825 5824 5823 5822 5821 5821 5820 5819 5818 5817 5816 5815 5814 5813 5812 5811 5810 5809 5808 5807 5806 5805 5805 5804 5802 5801 5800 5800 5799 5798 5797 5797 5796 5795 5795 5794 5793 5792 5791 5790 5788 5787 5786
5820 5819 5819 5818 5817 5816 5815 5814 5813 5812 5811 5810 5809 5808 5807 5806 5805 5804 5803 5802 5801 5800 5800 5799 5797 5796 5795 5794 5793 5793 5792 5791 5790 5789 5789 5788 5787 5786 5785 5784 5783 5782 5781
5815 5814 5814 5813 5812 5811 5810 5808 5807 5807 5806 5805 5804 5804 5803 5802 5800 5799 5798 5797 5796 5795 5794 5793 5792 5791 5790 5789 5788 5787 5786 5785 5784 5783 5782 5782 5781 5780 5779 5778 5777 5776 5776
5810 5809 5808 5807 5806 5805 5804 5803 5802 5801 5800 5800 5799 5798 5797 5796 5795 5794 5793 5791 5790 5789 5788 5787 5786 5785 5784 5783 5782 5781 5780 5779 5778 5777 5776 5775 5774 5773 5772 5771 5771 5770 5769
5804 5803 5802 5801 5800 5799 5798 5797 5796 5795 5795 5794 5793 5792 5791 5790 5789 5788 5787 5785 5784 5783 5782 5781 5780 5779 5778 5776 5775 5774 5773 5772 5771 5770 5769 5768 5767 5766 5765 5764 5763 5762 5762
5797 5796 5795 5794 5793 5792 5791 5790 5790 5789 5788 5788 5787 5786 5785 5784 5783 5781 5780 5779 5778 5776 5775 5774 5773 5772 5771 5770 5768 5767 5766 5765 5764 5763 5762 5761 5760 5758 5757 5756 5755 5755 5754
5790 5789 5788 5787 5786 5785 5785 5784 5783 5783 5782 5781 5780 5779 5778 5777 5776 5774 5773 5772 5770 5769 5768 5767 5766 5764 5763 5762 5761 5760 5759 5757 5756 5755 5754 5753 5752 5751 5749 5748 5748 5747 5746
5783 5782 5781 5780 5779 5778 5778 5777 5776 5776 5775 5774 5773 5772 5770 5769 5768 5767 5766 5765 5763 5762 5760 5759 5758 5756 5755 5753 5752 5751 5750 5749 5748 5747 5746 5746 5744 5743 5742 5740 5739 5738 5737
5775 5774 5773 5772 5771 5771 5770 5769 5769 5768 5767 5766 5765 5764 5763 5762 5760 5759 5758 5757 5756 5754 5752 5751 5749 5748 5746 5745 5744 5743 5742 5741 5741 5740 5738 5737 5736 5735 5734 5732 5731 5729 5728
5767 5766 5765 5764 5763 5763 5762 5761 5760 5760 5759 5758 5757 5756 5755 5753 5752 5750 5749 5748 5747 5746 5744 5742 5741 5740 5738 5737 5735 5734 5733 5733 5732 5731 5730 5729 5728 5726 5726 5724 5722 5721 5719